Location: St. Louis
(38.6270°N, 90.1994°W)
Time: 19:21:16
(UTC-05:00)

deb Kosmos-468 - Visible Passes

Search period start: 30 May 2023 00:00
Search period end: 09 June 2023 00:00
Orbit: 563 x 565 km, 74.0° (Epoch: 30 May)

Date Brightness Start Highest point End Pass type
(mag) Time Alt. Az. Time Alt. Az. Time Alt. Az.
30 May ? 04:53:14 10° S 04:57:12 48° ESE 05:01:12 10° NNE visible
31 May ? 04:52:57 10° S 04:57:03 68° ESE 05:01:10 10° NNE visible
01 Jun ? 04:52:45 10° SSW 04:56:54 86° WNW 05:01:03 10° NNE visible
02 Jun ? 04:52:38 10° SSW 04:56:44 61° WNW 05:00:50 10° NNE visible
03 Jun ? 03:17:30 10° ESE 03:19:21 13° E 03:21:13 10° ENE visible
03 Jun ? 04:52:37 10° SW 04:56:34 44° WNW 05:00:33 10° N visible
04 Jun ? 03:16:43 12° SE 03:19:02 17° E 03:21:47 10° NE visible
04 Jun ? 04:52:43 10° SW 04:56:24 32° WNW 05:00:10 10° N visible
05 Jun ? 03:16:49 17° SE 03:18:41 24° E 03:22:01 10° NE visible
05 Jun ? 04:52:49 10° WSW 04:56:14 25° WNW 04:59:40 10° N visible
06 Jun ? 03:16:52 25° SE 03:18:21 32° ESE 03:22:03 10° NE visible
06 Jun ? 04:53:07 10° WSW 04:56:05 19° WNW 04:59:03 10° NNW visible
07 Jun ? 03:16:51 34° SSE 03:18:01 44° ESE 03:21:58 10° NNE visible
07 Jun ? 04:53:37 10° W 04:55:55 14° WNW 04:58:14 10° NNW visible
08 Jun ? 03:16:46 47° SSE 03:17:40 62° ESE 03:21:46 10° NNE visible
08 Jun ? 04:54:40 10° WNW 04:55:46 11° WNW 04:56:52 10° NW visible
